Regional Weather Roundup
Issued by NWS Little Rock, AR

Home | Current Version | Previous Version | Text Only | Print | Product List | Glossary On
Versions: 1 2 3 4 5 6 7 8 9 10 11 12 13 14 15 16 17 18 19 20 21 22 23 24 25 26 27 28 29 30 31 32 33 34 35 36 37 38 39 40 41 42 43 44 45 46 47 48 49 50
000
ASUS44 KLZK 231905
RWRLZK

WEATHER ROUNDUP FOR ARKANSAS
NATIONAL WEATHER SERVICE LITTLE ROCK AR
200 PM CDT FRI JUN 23 2017

NOTE: "FAIR" INDICATES FEW OR NO CLOUDS BELOW 12,000 FEET WITH NO
SIGNIFICANT WEATHER AND/OR OBSTRUCTIONS TO VISIBILITY.

ARZ001-003-010-029-232000-
NORTHWEST ARKANSAS

CITY           SKY/WX    TMP DP  RH WIND       PRES   REMARKS
FAYETTEVILLE   PTSUNNY   85  74  69 W12       29.83S HX  92
FORT SMITH     MOSUNNY   92  74  55 W13       29.79F HX 101
HARRISON       TSTM      68  67  96 N13G39    29.90R VSB 1/2
BENTONVILLE    CLOUDY    72  66  83 N18       29.89R
ROGERS         LGT RAIN  71  68  90 N10G17    29.90R
SILOAM SPGS    PTSUNNY   84  72  65 N23G30    29.84S HX  89
HIGHFILL       CLOUDY    78  71  79 N24G30    29.87R
SPRINGDALE     CLOUDY    86  75  70 NW13G22   29.85S HX  95
$$

ARZ004-005-016-232000-
NORTH CENTRAL ARKANSAS

CITY           SKY/WX    TMP DP  RH WIND       PRES   REMARKS
BATESVILLE     PTSUNNY   88  75  66 W9        29.75F HX  97
FLIPPIN        MOSUNNY  N/A N/A N/A W10       29.75R
MTN HOME       PTSUNNY   85  73  67 VRB7      29.77R HX  91
$$

ARZ040-041-232000-
WEST CENTRAL ARKANSAS

CITY           SKY/WX    TMP DP  RH WIND       PRES   REMARKS
MENA           CLOUDY    90  81  74 SW6       29.85S HX 108
MOUNT IDA      PTSUNNY   88  73  61 CALM      29.81S HX  95
$$

ARZ009-017-025-026-028-232000-
NORTHEAST ARKANSAS

CITY           SKY/WX    TMP DP  RH WIND       PRES   REMARKS
JONESBORO      CLOUDY    85  76  74 W13       29.73R HX  94
WALNUT RIDGE   CLOUDY    90  73  58 W8        29.72S HX  98
BLYTHEVILLE    CLOUDY    84  77  79 W10G20    29.72R HX  94
$$

ARZ022-023-033-042-044-232000-
CENTRAL ARKANSAS

CITY           SKY/WX    TMP DP  RH WIND       PRES   REMARKS
LITTLE ROCK    CLOUDY    88  78  72 W8        29.78F HX 101
N LITTLE ROCK    N/A     86  76  73 W5        29.77F HX  96
JACKSONVILLE   MOSUNNY   88  78  72 SW9       29.77F HX 102
CONWAY           N/A     90  77  66 W7        29.76F HX 102
SEARCY         PTSUNNY   87  78  74 W7        29.77F HX 100
HOT SPRINGS    PTSUNNY   90  77  65 S6        29.80F HX 103
RUSSELLVILLE   CLOUDY    90  76  63 W10       29.78S HX 101
CLINTON        FAIR      88  77  70 SW10      29.78R HX 100
$$

ARZ036-232000-
EAST ARKANSAS

CITY           SKY/WX    TMP DP  RH WIND       PRES   REMARKS
WEST MEMPHIS   CLOUDY    80  77  90 W12       29.75S HX  87
$$

ARZ050-053-066-070-073-232000-
SOUTHWEST ARKANSAS

CITY           SKY/WX    TMP DP  RH WIND       PRES   REMARKS
ARKADELPHIA    FAIR      89  77  67 SW7       29.80F HX 101
CAMDEN         CLOUDY    86  75  70 SW7       29.82F HX  95
TEXARKANA      CLOUDY    90  77  65 SW12      29.82F HX 103
EL DORADO      CLOUDY    84  77  79 S10       29.84F HX  94
DE QUEEN       MOSUNNY   92  76  59 SW6       29.79F HX 104
$$

ARZ056-057-069-232000-
SOUTHEAST ARKANSAS

CITY           SKY/WX    TMP DP  RH WIND       PRES   REMARKS
PINE BLUFF     CLOUDY    82  77  84 SW10      29.80F HX  90
STUTTGART      CLOUDY   N/A N/A N/A SW12      29.79F
MONTICELLO     CLOUDY    80  76  87 SW12      29.84F HX  86

$$





USA.gov is the U.S. government's official web portal to all federal, state and local government web resources and services.